| time (UTC) | temp C | wind direction | speed KPH | gust KPH | rain 1hr cm | rain 24hr cm | rain mn cm | humidity % | barometer mb |
| 20260906102103 | 20 | 165 | 0.0 | 0.0 | 0.00 | 0.05 | 0.00 | 89 | 1013.9 |
| 20260906101103 | 20 | 100 | 0.0 | 0.0 | 0.00 | 0.05 | 0.00 | 89 | 1014.0 |
| 20260906100602 | 20 | 180 | 0.0 | 0.0 | 0.00 | 0.05 | 0.00 | 89 | 1014.1 |
| 20260906100103 | 20 | 113 | 0.0 | 0.0 | 0.00 | 0.05 | 0.00 | 89 | 1014.1 |
| 20260906095604 | 20 | 131 | 0.0 | 0.0 | 0.00 | 0.05 | 0.00 | 89 | 1014.1 |
| 20260906095103 | 20 | 180 | 0.0 | 0.0 | 0.00 | 0.05 | 0.00 | 89 | 1014.1 |
| 20260906094103 | 20 | 112 | 0.0 | 0.0 | 0.00 | 0.05 | 0.00 | 89 | 1014.0 |
| 20260906093603 | 20 | 135 | 0.0 | 0.0 | 0.00 | 0.05 | 0.00 | 89 | 1014.0 |
| 20260906092603 | 20 | 138 | 0.0 | 0.0 | 0.00 | 0.05 | 0.00 | 89 | 1013.9 |
| 20260906092103 | 20 | 201 | 0.0 | 0.0 | 0.00 | 0.05 | 0.00 | 89 | 1013.9 |
| 20260906091603 | 20 | 202 | 0.0 | 0.0 | 0.00 | 0.05 | 0.00 | 89 | 1014.3 |
| 20260906091103 | 20 | 180 | 0.0 | 0.0 | 0.00 | 0.05 | 0.00 | 89 | 1014.3 |
| 20260906090603 | 20 | 213 | 0.0 | 0.0 | 0.00 | 0.05 | 0.00 | 89 | 1014.0 |
| 20260906085602 | 20 | 180 | 0.0 | 0.0 | 0.00 | 0.05 | 0.00 | 89 | 1014.0 |
| 20260906085103 | 20 | 180 | 0.0 | 0.0 | 0.00 | 0.05 | 0.00 | 89 | 1013.9 |
| 20260906084604 | 20 | 112 | 0.0 | 0.0 | 0.00 | 0.05 | 0.00 | 89 | 1013.9 |
| 20260906084103 | 20 | 90 | 0.0 | 0.0 | 0.00 | 0.05 | 0.00 | 89 | 1013.7 |
| 20260906083604 | 20 | 47 | 0.0 | 0.0 | 0.00 | 0.05 | 0.00 | 89 | 1013.7 |
| 20260906083103 | 20 | 90 | 0.0 | 0.0 | 0.00 | 0.05 | 0.00 | 89 | 1013.7 |
| 20260906082603 | 20 | 83 | 0.0 | 0.0 | 0.00 | 0.05 | 0.00 | 89 | 1013.9 |
| 20260906080104 | 20 | 198 | 0.0 | 0.0 | 0.00 | 0.05 | 0.00 | 89 | 1013.8 |
| 20260906074103 | 20 | 112 | 0.0 | 0.0 | 0.00 | 0.05 | 0.00 | 89 | 1013.8 |
| 20260906073604 | 20 | 107 | 0.0 | 0.0 | 0.00 | 0.05 | 0.00 | 89 | 1013.8 |
| 20260906073103 | 20 | 45 | 0.0 | 0.0 | 0.00 | 0.05 | 0.00 | 89 | 1013.7 |
| 20260906072603 | 20 | 38 | 0.0 | 0.0 | 0.00 | 0.05 | 0.00 | 89 | 1013.6 |
| 20260906072103 | 20 | 180 | 0.0 | 0.0 | 0.00 | 0.05 | 0.00 | 89 | 1013.6 |
| 20260906071103 | 20 | 158 | 0.0 | 0.0 | 0.00 | 0.05 | 0.00 | 89 | 1013.8 |
| 20260906070603 | 20 | 135 | 0.0 | 0.0 | 0.00 | 0.05 | 0.00 | 89 | 1013.9 |
| 20260906065603 | 20 | 204 | 0.0 | 0.0 | 0.00 | 0.05 | 0.00 | 89 | 1013.9 |
| 20260906065103 | 20 | 287 | 1.6 | 1.6 | 0.00 | 0.05 | 0.00 | 89 | 1014.1 |
| 20260906064603 | 20 | 112 | 0.0 | 0.0 | 0.00 | 0.05 | 0.00 | 89 | 1014.1 |
| 20260906063603 | 20 | 89 | 0.0 | 0.0 | 0.00 | 0.05 | 0.00 | 89 | 1014.1 |
| 20260906063103 | 20 | 90 | 0.0 | 0.0 | 0.00 | 0.05 | 0.00 | 89 | 1014.1 |
| 20260906062603 | 20 | 158 | 0.0 | 0.0 | 0.00 | 0.05 | 0.00 | 89 | 1014.1 |
| 20260906062104 | 20 | 180 | 0.0 | 0.0 | 0.00 | 0.05 | 0.00 | 89 | 1014.1 |
| 20260906061604 | 20 | 112 | 0.0 | 0.0 | 0.00 | 0.05 | 0.00 | 89 | 1014.0 |
| 20260906061102 | 20 | 167 | 0.0 | 0.0 | 0.00 | 0.05 | 0.00 | 89 | 1014.0 |
| 20260906060604 | 20 | 161 | 0.0 | 0.0 | 0.00 | 0.05 | 0.00 | 89 | 1014.1 |
| 20260906060104 | 20 | 129 | 0.0 | 0.0 | 0.00 | 0.05 | 0.00 | 89 | 1014.1 |
| 20260906055603 | 20 | 141 | 0.0 | 0.0 | 0.00 | 0.05 | 0.00 | 89 | 1014.1 |
| 20260906055103 | 20 | 167 | 0.0 | 0.0 | 0.00 | 0.05 | 0.00 | 89 | 1014.4 |
| 20260906054603 | 20 | 164 | 0.0 | 0.0 | 0.00 | 0.05 | 0.00 | 89 | 1014.4 |
| 20260906054104 | 20 | 114 | 0.0 | 0.0 | 0.00 | 0.05 | 0.00 | 89 | 1014.5 |
| 20260906053603 | 20 | 107 | 0.0 | 0.0 | 0.00 | 0.05 | 0.00 | 89 | 1014.5 |
| 20260906053103 | 20 | 180 | 0.0 | 0.0 | 0.00 | 0.05 | 0.00 | 89 | 1014.5 |
| 20260906052603 | 20 | 111 | 0.0 | 0.0 | 0.00 | 0.05 | 0.00 | 89 | 1014.7 |
| 20260906052103 | 20 | 112 | 0.0 | 0.0 | 0.00 | 0.05 | 0.00 | 89 | 1014.7 |
| 20260906051104 | 20 | 139 | 0.0 | 0.0 | 0.00 | 0.05 | 0.00 | 89 | 1014.6 |
| 20260906050603 | 20 | 158 | 0.0 | 0.0 | 0.00 | 0.05 | 0.00 | 89 | 1014.6 |
| 20260906050104 | 20 | 148 | 0.0 | 0.0 | 0.00 | 0.05 | 0.00 | 89 | 1014.6 |
| 20260906045604 | 20 | 94 | 0.0 | 0.0 | 0.00 | 0.05 | 0.00 | 89 | 1014.6 |
| 20260906045105 | 20 | 135 | 0.0 | 0.0 | 0.00 | 0.05 | 0.00 | 89 | 1014.7 |
| 20260906044603 | 20 | 125 | 0.0 | 0.0 | 0.00 | 0.05 | 0.00 | 89 | 1014.7 |
| 20260906044103 | 20 | 180 | 0.0 | 0.0 | 0.00 | 0.05 | 0.00 | 89 | 1014.7 |
| 20260906043604 | 20 | 116 | 0.0 | 0.0 | 0.00 | 0.05 | 0.00 | 89 | 1014.7 |
| 20260906043103 | 20 | 140 | 0.0 | 0.0 | 0.00 | 0.05 | 0.00 | 89 | 1014.8 |
| 20260906042605 | 20 | 90 | 0.0 | 0.0 | 0.00 | 0.05 | 0.00 | 89 | 1015.0 |
| 20260906042104 | 20 | 45 | 0.0 | 0.0 | 0.00 | 0.05 | 0.00 | 89 | 1015.0 |
| 20260906041603 | 20 | 215 | 0.0 | 0.0 | 0.00 | 0.05 | 0.00 | 89 | 1014.8 |
| 20260906040602 | 21 | 158 | 0.0 | 0.0 | 0.00 | 0.05 | 0.00 | 89 | 1014.8 |
| 20260906040105 | 21 | 328 | 0.0 | 0.0 | 0.00 | 0.05 | 0.00 | 89 | 1014.8 |
| 20260906035104 | 21 | 346 | 0.0 | 0.0 | 0.00 | 0.05 | 0.05 | 89 | 1014.6 |
| 20260906034603 | 21 | 55 | 0.0 | 0.0 | 0.00 | 0.05 | 0.05 | 89 | 1014.6 |
| 20260906034103 | 21 | 170 | 0.0 | 0.0 | 0.00 | 0.05 | 0.05 | 89 | 1014.7 |
| 20260906033103 | 21 | 180 | 0.0 | 0.0 | 0.00 | 0.05 | 0.05 | 89 | 1014.7 |
| 20260906032603 | 21 | 180 | 0.0 | 0.0 | 0.00 | 0.05 | 0.05 | 89 | 1014.8 |
| 20260906032103 | 21 | 171 | 0.0 | 0.0 | 0.00 | 0.05 | 0.05 | 89 | 1014.8 |
| 20260906030603 | 21 | 139 | 0.0 | 0.0 | 0.00 | 0.05 | 0.05 | 89 | 1014.9 |
| 20260906025104 | 21 | 126 | 0.0 | 0.0 | 0.00 | 0.05 | 0.05 | 89 | 1014.8 |
| 20260906024604 | 21 | 163 | 0.0 | 0.0 | 0.00 | 0.05 | 0.05 | 89 | 1014.8 |
| 20260906024104 | 21 | 136 | 0.0 | 0.0 | 0.00 | 0.05 | 0.05 | 89 | 1014.7 |
| 20260906023604 | 21 | 149 | 0.0 | 0.0 | 0.00 | 0.05 | 0.05 | 89 | 1014.7 |
| 20260906023104 | 21 | 180 | 0.0 | 0.0 | 0.00 | 0.05 | 0.05 | 89 | 1014.7 |
| 20260906022604 | 21 | 169 | 0.0 | 0.0 | 0.00 | 0.05 | 0.05 | 89 | 1014.4 |
| 20260906022104 | 21 | 158 | 0.0 | 0.0 | 0.00 | 0.05 | 0.05 | 89 | 1014.4 |
| 20260906021603 | 21 | 112 | 0.0 | 0.0 | 0.00 | 0.05 | 0.05 | 89 | 1014.5 |
| 20260906021103 | 21 | 146 | 0.0 | 0.0 | 0.00 | 0.05 | 0.05 | 89 | 1014.5 |
| 20260906020604 | 21 | 112 | 0.0 | 0.0 | 0.00 | 0.05 | 0.05 | 89 | 1014.2 |
| 20260906015104 | 22 | 160 | 0.0 | 0.0 | 0.00 | 0.05 | 0.05 | 89 | 1014.1 |
| 20260906014604 | 22 | 180 | 0.0 | 0.0 | 0.00 | 0.05 | 0.05 | 89 | 1014.1 |
| 20260906014103 | 22 | 158 | 0.0 | 0.0 | 0.00 | 0.05 | 0.05 | 89 | 1014.1 |
| 20260906013603 | 22 | 132 | 0.0 | 0.0 | 0.00 | 0.05 | 0.05 | 89 | 1014.1 |
| 20260906012603 | 22 | 140 | 0.0 | 0.0 | 0.00 | 0.05 | 0.05 | 89 | 1014.0 |
| 20260906012103 | 22 | 115 | 0.0 | 0.0 | 0.00 | 0.05 | 0.05 | 89 | 1014.0 |
| 20260906011604 | 22 | 145 | 0.0 | 0.0 | 0.00 | 0.05 | 0.05 | 89 | 1013.9 |
| 20260906011104 | 22 | 158 | 0.0 | 0.0 | 0.00 | 0.05 | 0.05 | 89 | 1013.9 |
| 20260906005603 | 22 | 170 | 0.0 | 0.0 | 0.00 | 0.05 | 0.05 | 89 | 1013.9 |
| 20260906004604 | 22 | 140 | 0.0 | 0.0 | 0.00 | 0.05 | 0.05 | 89 | 1013.8 |
| 20260906004103 | 22 | 180 | 0.0 | 0.0 | 0.00 | 0.05 | 0.05 | 89 | 1013.6 |
| 20260906003603 | 22 | 103 | 0.0 | 0.0 | 0.00 | 0.05 | 0.05 | 89 | 1013.6 |
| 20260906003103 | 22 | 170 | 0.0 | 0.0 | 0.00 | 0.05 | 0.05 | 89 | 1013.6 |
| 20260906002605 | 22 | 173 | 0.0 | 0.0 | 0.00 | 0.05 | 0.05 | 89 | 1013.8 |
| 20260906001604 | 22 | 68 | 0.0 | 0.0 | 0.00 | 0.05 | 0.05 | 89 | 1013.8 |
| 20260906001103 | 22 | 180 | 0.0 | 0.0 | 0.00 | 0.05 | 0.05 | 89 | 1013.8 |
| 20260906000603 | 22 | 158 | 0.0 | 0.0 | 0.00 | 0.05 | 0.05 | 89 | 1013.6 |
| 20260906000104 | 22 | 265 | 0.0 | 0.0 | 0.00 | 0.05 | 0.05 | 89 | 1013.6 |
| 20260905235603 | 22 | 270 | 0.0 | 0.0 | 0.00 | 0.05 | 0.05 | 89 | 1013.6 |
| 20260905235103 | 22 | 195 | 0.0 | 0.0 | 0.00 | 0.05 | 0.05 | 89 | 1013.4 |
| 20260905234603 | 23 | 112 | 0.0 | 0.0 | 0.00 | 0.05 | 0.05 | 89 | 1013.4 |
| 20260905233604 | 23 | 109 | 0.0 | 0.0 | 0.00 | 0.05 | 0.05 | 89 | 1013.6 |
| 20260905232603 | 23 | 233 | 0.0 | 0.0 | 0.00 | 0.05 | 0.05 | 89 | 1013.5 |
| 20260905231603 | 23 | 108 | 0.0 | 0.0 | 0.00 | 0.05 | 0.05 | 89 | 1013.5 |
| 20260905231104 | 23 | 112 | 0.0 | 0.0 | 0.00 | 0.05 | 0.05 | 89 | 1013.5 |
| 20260905230603 | 23 | 37 | 0.0 | 0.0 | 0.00 | 0.05 | 0.05 | 89 | 1013.5 |
| 20260905230104 | 23 | 112 | 0.0 | 0.0 | 0.00 | 0.05 | 0.05 | 89 | 1013.5 |
| 20260905225603 | 23 | 158 | 0.0 | 0.0 | 0.00 | 0.05 | 0.05 | 89 | 1013.5 |
| 20260905225103 | 23 | 22 | 0.0 | 0.0 | 0.00 | 0.05 | 0.05 | 89 | 1013.2 |
| 20260905224603 | 23 | 180 | 0.0 | 0.0 | 0.00 | 0.05 | 0.05 | 89 | 1013.2 |
| 20260905224104 | 23 | 112 | 0.0 | 0.0 | 0.00 | 0.05 | 0.05 | 89 | 1013.7 |
| 20260905223603 | 23 | 112 | 0.0 | 0.0 | 0.00 | 0.05 | 0.05 | 88 | 1013.7 |
| 20260905222103 | 23 | 177 | 0.0 | 0.0 | 0.00 | 0.05 | 0.05 | 88 | 1013.9 |
| 20260905221604 | 23 | 180 | 0.0 | 0.0 | 0.00 | 0.05 | 0.05 | 88 | 1013.9 |
| 20260905220603 | 23 | 90 | 0.0 | 0.0 | 0.00 | 0.05 | 0.05 | 88 | 1013.6 |
| 20260905220103 | 23 | 112 | 0.0 | 0.0 | 0.00 | 0.05 | 0.05 | 88 | 1013.6 |
| 20260905215103 | 23 | 180 | 1.6 | 1.6 | 0.00 | 0.05 | 0.05 | 88 | 1013.9 |
| 20260905214603 | 23 | 180 | 0.0 | 0.0 | 0.00 | 0.05 | 0.05 | 88 | 1013.9 |
| 20260905214104 | 23 | 180 | 0.0 | 0.0 | 0.00 | 0.05 | 0.05 | 88 | 1013.8 |
| 20260905213604 | 23 | 158 | 0.0 | 0.0 | 0.00 | 0.05 | 0.05 | 89 | 1013.8 |
| 20260905213103 | 23 | 68 | 0.0 | 0.0 | 0.00 | 0.05 | 0.05 | 89 | 1013.8 |
| 20260905212604 | 23 | 112 | 0.0 | 0.0 | 0.00 | 0.05 | 0.05 | 88 | 1014.2 |
| 20260905212103 | 23 | 197 | 0.0 | 0.0 | 0.00 | 0.05 | 0.05 | 88 | 1014.2 |
| 20260905211603 | 23 | 189 | 0.0 | 0.0 | 0.00 | 0.05 | 0.05 | 88 | 1014.2 |
| 20260905210605 | 23 | 158 | 0.0 | 1.6 | 0.03 | 0.05 | 0.05 | 88 | 1014.3 |
| 20260905210103 | 23 | 155 | 1.6 | 3.2 | 0.03 | 0.05 | 0.05 | 87 | 1014.3 |
| 20260905205104 | 23 | 180 | 0.0 | 1.6 | 0.03 | 0.05 | 0.05 | 87 | 1014.0 |
| 20260905204603 | 23 | 55 | 0.0 | 0.0 | 0.03 | 0.05 | 0.05 | 87 | 1014.0 |
| 20260905204103 | 24 | 135 | 0.0 | 1.6 | 0.03 | 0.05 | 0.05 | 87 | 1013.8 |
| 20260905203604 | 24 | 145 | 0.0 | 0.0 | 0.03 | 0.05 | 0.05 | 85 | 1013.8 |
| 20260905203103 | 24 | 165 | 0.0 | 0.0 | 0.03 | 0.05 | 0.05 | 84 | 1013.8 |
| 20260905202604 | 24 | 158 | 0.0 | 0.0 | 0.03 | 0.05 | 0.05 | 83 | 1014.0 |
| 20260905202103 | 25 | 225 | 0.0 | 0.0 | 0.05 | 0.05 | 0.05 | 82 | 1014.0 |
| 20260905201603 | 25 | 358 | 1.6 | 4.8 | 0.05 | 0.05 | 0.05 | 82 | 1014.6 |
| 20260905201104 | 25 | 22 | 3.2 | 4.8 | 0.05 | 0.05 | 0.05 | 82 | 1014.6 |
| 20260905200604 | 26 | 103 | 4.8 | 8.0 | 0.03 | 0.03 | 0.03 | 80 | 1014.7 |
| 20260905200103 | 26 | 59 | 3.2 | 4.8 | 0.03 | 0.03 | 0.03 | 78 | 1014.8 |
| 20260905195604 | 26 | 68 | 0.0 | 3.2 | 0.03 | 0.03 | 0.03 | 77 | 1014.8 |
| 20260905195104 | 26 | 114 | 0.0 | 3.2 | 0.03 | 0.03 | 0.03 | 77 | 1014.6 |
| 20260905194604 | 26 | 220 | 0.0 | 0.0 | 0.03 | 0.03 | 0.03 | 76 | 1014.6 |
| 20260905194104 | 26 | 45 | 0.0 | 0.0 | 0.03 | 0.03 | 0.03 | 75 | 1014.3 |
| 20260905193604 | 26 | 45 | 0.0 | 0.0 | 0.03 | 0.03 | 0.03 | 75 | 1014.3 |
| 20260905193103 | 26 | 158 | 0.0 | 0.0 | 0.03 | 0.03 | 0.03 | 72 | 1014.3 |
| 20260905192604 | 26 | 175 | 0.0 | 1.6 | 0.03 | 0.03 | 0.03 | 73 | 1014.5 |
| 20260905192103 | 26 | 80 | 0.0 | 4.8 | 0.00 | 0.00 | 0.00 | 75 | 1014.5 |
| 20260905191604 | 26 | 166 | 3.2 | 4.8 | 0.00 | 0.00 | 0.00 | 79 | 1014.6 |
| 20260905190604 | 25 | 158 | 1.6 | 3.2 | 0.00 | 0.00 | 0.00 | 82 | 1014.7 |
| 20260905185103 | 23 | 22 | 3.2 | 3.2 | 0.00 | 0.00 | 0.00 | 77 | 1014.8 |
| 20260905184603 | 24 | 153 | 3.2 | 8.0 | 0.00 | 0.00 | 0.00 | 73 | 1014.8 |
| 20260905184103 | 25 | 159 | 1.6 | 3.2 | 0.00 | 0.00 | 0.00 | 71 | 1014.9 |
| 20260905183603 | 26 | 46 | 3.2 | 4.8 | 0.00 | 0.00 | 0.00 | 68 | 1014.9 |
| 20260905182603 | 27 | 112 | 1.6 | 11.3 | 0.00 | 0.00 | 0.00 | 61 | 1015.4 |
| 20260905182103 | 27 | 165 | 4.8 | 11.3 | 0.00 | 0.00 | 0.00 | 60 | 1015.4 |
| 20260905181603 | 29 | 44 | 3.2 | 4.8 | 0.00 | 0.00 | 0.00 | 57 | 1015.0 |
| 20260905181103 | 30 | 80 | 3.2 | 8.0 | 0.00 | 0.00 | 0.00 | 52 | 1015.0 |
| 20260905180603 | 31 | 121 | 3.2 | 4.8 | 0.00 | 0.00 | 0.00 | 51 | 1015.1 |
| 20260905180104 | 32 | 151 | 4.8 | 8.0 | 0.00 | 0.00 | 0.00 | 56 | 1015.1 |
| 20260905175603 | 34 | 45 | 3.2 | 4.8 | 0.00 | 0.00 | 0.00 | 58 | 1015.1 |
| 20260905175103 | 33 | 65 | 0.0 | 0.0 | 0.00 | 0.00 | 0.00 | 60 | 1014.8 |
| 20260905174605 | 33 | 194 | 0.0 | 3.2 | 0.00 | 0.00 | 0.00 | 56 | 1014.8 |
| 20260905174103 | 34 | 305 | 3.2 | 3.2 | 0.00 | 0.00 | 0.00 | 56 | 1015.1 |
| 20260905173603 | 35 | 316 | 3.2 | 4.8 | 0.00 | 0.00 | 0.00 | 55 | 1015.1 |
| 20260905173103 | 34 | 333 | 1.6 | 3.2 | 0.00 | 0.00 | 0.00 | 57 | 1015.1 |
| 20260905172604 | 33 | 190 | 0.0 | 1.6 | 0.00 | 0.00 | 0.00 | 59 | 1015.0 |
| 20260905172104 | 33 | 249 | 1.6 | 1.6 | 0.00 | 0.00 | 0.00 | 59 | 1015.0 |
| 20260905171603 | 33 | 225 | 1.6 | 3.2 | 0.00 | 0.00 | 0.00 | 60 | 1015.3 |
| 20260905171103 | 33 | 191 | 0.0 | 4.8 | 0.00 | 0.00 | 0.00 | 60 | 1015.3 |
| 20260905170603 | 33 | 0 | 1.6 | 4.8 | 0.00 | 0.00 | 0.00 | 60 | 1015.4 |
| 20260905170105 | 33 | 189 | 1.6 | 3.2 | 0.00 | 0.00 | 0.00 | 60 | 1015.4 |
| 20260905164603 | 32 | 235 | 0.0 | 1.6 | 0.00 | 0.00 | 0.00 | 64 | 1015.5 |
| 20260905164103 | 32 | 286 | 0.0 | 1.6 | 0.00 | 0.00 | 0.00 | 64 | 1015.6 |
| 20260905163103 | 32 | 14 | 1.6 | 3.2 | 0.00 | 0.00 | 0.00 | 64 | 1015.6 |
| 20260905162603 | 32 | 206 | 1.6 | 1.6 | 0.00 | 0.00 | 0.00 | 63 | 1015.8 |
| 20260905162104 | 32 | 50 | 0.0 | 1.6 | 0.00 | 0.00 | 0.00 | 62 | 1015.8 |
| 20260905161604 | 32 | 47 | 1.6 | 1.6 | 0.00 | 0.00 | 0.00 | 63 | 1015.8 |
| 20260905161103 | 31 | 153 | 0.0 | 1.6 | 0.00 | 0.00 | 0.00 | 65 | 1015.8 |
| 20260905160604 | 31 | 251 | 0.0 | 3.2 | 0.00 | 0.00 | 0.00 | 65 | 1015.9 |
| 20260905155604 | 31 | 133 | 1.6 | 1.6 | 0.00 | 0.00 | 0.00 | 65 | 1016.0 |
| 20260905155104 | 30 | 229 | 1.6 | 1.6 | 0.00 | 0.00 | 0.00 | 65 | 1016.2 |
| 20260905154104 | 31 | 280 | 3.2 | 3.2 | 0.00 | 0.00 | 0.00 | 64 | 1016.3 |
| 20260905153603 | 30 | 6 | 3.2 | 3.2 | 0.00 | 0.00 | 0.00 | 64 | 1016.3 |
| 20260905153103 | 30 | 232 | 0.0 | 3.2 | 0.00 | 0.00 | 0.00 | 69 | 1016.3 |
| 20260905152604 | 29 | 86 | 0.0 | 1.6 | 0.00 | 0.00 | 0.00 | 67 | 1016.3 |
| 20260905152103 | 29 | 171 | 0.0 | 3.2 | 0.00 | 0.00 | 0.00 | 69 | 1016.3 |
| 20260905151603 | 28 | 102 | 0.0 | 0.0 | 0.00 | 0.00 | 0.00 | 71 | 1016.3 |
| 20260905150604 | 28 | 81 | 0.0 | 1.6 | 0.00 | 0.00 | 0.00 | 70 | 1016.3 |
| 20260905150104 | 27 | 95 | 0.0 | 0.0 | 0.00 | 0.00 | 0.00 | 71 | 1016.3 |
| 20260905145604 | 28 | 140 | 0.0 | 0.0 | 0.00 | 0.00 | 0.00 | 70 | 1016.3 |
| 20260905144604 | 27 | 161 | 0.0 | 0.0 | 0.00 | 0.00 | 0.00 | 73 | 1016.4 |
| 20260905143103 | 26 | 45 | 0.0 | 0.0 | 0.00 | 0.00 | 0.00 | 78 | 1016.5 |
| 20260905142604 | 26 | 135 | 0.0 | 0.0 | 0.00 | 0.00 | 0.00 | 79 | 1016.6 |
| 20260905142104 | 25 | 79 | 0.0 | 0.0 | 0.00 | 0.00 | 0.00 | 81 | 1016.6 |
| 20260905141603 | 25 | 180 | 0.0 | 0.0 | 0.00 | 0.00 | 0.00 | 82 | 1016.7 |
| 20260905141104 | 25 | 180 | 0.0 | 0.0 | 0.00 | 0.00 | 0.00 | 82 | 1016.7 |
| 20260905140604 | 25 | 137 | 0.0 | 0.0 | 0.00 | 0.00 | 0.00 | 83 | 1016.8 |
| 20260905140103 | 24 | 180 | 0.0 | 0.0 | 0.00 | 0.00 | 0.00 | 84 | 1016.8 |
| 20260905135603 | 24 | 125 | 0.0 | 0.0 | 0.00 | 0.00 | 0.00 | 84 | 1016.8 |
| 20260905134603 | 23 | 180 | 0.0 | 1.6 | 0.00 | 0.00 | 0.00 | 87 | 1016.8 |
| 20260905134105 | 23 | 193 | 0.0 | 1.6 | 0.00 | 0.00 | 0.00 | 87 | 1016.8 |
| 20260905133603 | 23 | 166 | 0.0 | 1.6 | 0.00 | 0.00 | 0.00 | 87 | 1016.8 |
| 20260905133103 | 22 | 126 | 0.0 | 1.6 | 0.00 | 0.00 | 0.00 | 89 | 1016.8 |
| 20260905132604 | 22 | 193 | 0.0 | 0.0 | 0.00 | 0.00 | 0.00 | 89 | 1017.0 |
| 20260905132104 | 22 | 158 | 0.0 | 0.0 | 0.00 | 0.00 | 0.00 | 89 | 1017.0 |
| 20260905131604 | 21 | 112 | 0.0 | 0.0 | 0.00 | 0.00 | 0.00 | 89 | 1017.0 |
| 20260905131104 | 21 | 158 | 0.0 | 0.0 | 0.00 | 0.00 | 0.00 | 89 | 1017.0 |
| 20260905130603 | 21 | 158 | 0.0 | 0.0 | 0.00 | 0.00 | 0.00 | 89 | 1017.0 |
| 20260905125603 | 21 | 202 | 0.0 | 0.0 | 0.00 | 0.00 | 0.00 | 89 | 1017.1 |
| 20260905125104 | 21 | 167 | 0.0 | 0.0 | 0.00 | 0.00 | 0.00 | 89 | 1016.9 |
| 20260905124604 | 21 | 158 | 0.0 | 0.0 | 0.00 | 0.00 | 0.00 | 89 | 1016.9 |
| 20260905124103 | 20 | 158 | 0.0 | 0.0 | 0.00 | 0.00 | 0.00 | 89 | 1017.0 |
| 20260905123604 | 20 | 151 | 0.0 | 0.0 | 0.00 | 0.00 | 0.00 | 89 | 1017.0 |
| 20260905123104 | 20 | 155 | 0.0 | 0.0 | 0.00 | 0.00 | 0.00 | 89 | 1017.0 |
| 20260905122603 | 20 | 158 | 0.0 | 0.0 | 0.00 | 0.00 | 0.00 | 89 | 1016.8 |
| 20260905122103 | 20 | 153 | 0.0 | 0.0 | 0.00 | 0.00 | 0.00 | 89 | 1016.8 |
| 20260905121103 | 20 | 135 | 0.0 | 0.0 | 0.00 | 0.00 | 0.00 | 89 | 1016.7 |
| 20260905120603 | 20 | 112 | 0.0 | 0.0 | 0.00 | 0.00 | 0.00 | 89 | 1016.6 |
| 20260905120104 | 20 | 154 | 0.0 | 0.0 | 0.00 | 0.00 | 0.00 | 89 | 1016.6 |
| 20260905115604 | 20 | 158 | 0.0 | 0.0 | 0.00 | 0.00 | 0.00 | 89 | 1016.6 |
| 20260905115104 | 20 | 146 | 0.0 | 0.0 | 0.00 | 0.00 | 0.00 | 89 | 1016.5 |
| 20260905114604 | 20 | 112 | 0.0 | 0.0 | 0.00 | 0.00 | 0.00 | 89 | 1016.5 |
| 20260905114103 | 20 | 166 | 0.0 | 0.0 | 0.00 | 0.00 | 0.00 | 89 | 1016.2 |
| 20260905113104 | 20 | 158 | 0.0 | 0.0 | 0.00 | 0.00 | 0.00 | 89 | 1016.2 |
| 20260905112103 | 20 | 135 | 0.0 | 0.0 | 0.00 | 0.00 | 0.00 | 89 | 1016.0 |
| 20260905111603 | 20 | 111 | 0.0 | 0.0 | 0.00 | 0.00 | 0.00 | 89 | 1015.9 |
| 20260905111105 | 20 | 158 | 0.0 | 0.0 | 0.00 | 0.00 | 0.00 | 89 | 1015.9 |
| 20260905110605 | 20 | 158 | 0.0 | 0.0 | 0.00 | 0.00 | 0.00 | 89 | 1015.9 |
| 20260905110104 | 20 | 112 | 0.0 | 0.0 | 0.00 | 0.00 | 0.00 | 89 | 1016.0 |
| 20260905105103 | 20 | 135 | 0.0 | 0.0 | 0.00 | 0.00 | 0.00 | 89 | 1015.9 |
| 20260905104604 | 20 | 159 | 0.0 | 0.0 | 0.00 | 0.00 | 0.00 | 89 | 1015.9 |
| 20260905104104 | 20 | 158 | 0.0 | 0.0 | 0.00 | 0.00 | 0.00 | 89 | 1015.7 |
| 20260905103603 | 20 | 126 | 0.0 | 0.0 | 0.00 | 0.00 | 0.00 | 89 | 1015.7 |
| 20260905103104 | 20 | 180 | 0.0 | 0.0 | 0.00 | 0.00 | 0.00 | 89 | 1015.7 |
| 20260905102603 | 20 | 180 | 0.0 | 0.0 | 0.00 | 0.00 | 0.00 | 89 | 1015.7 |